Content
SEND FEEDBACK

Daily
Averages
Monthly
Summary
United States of America

HIGH BRIDGE, WISCONSIN


Home > North America > United States > Wisconsin
Elevation: 986 feet     Latitude: 46 25N     Longitude: 090 37W

WEATHER
 
SELECT A DAY
Number of Records: 182,379;   Date Range: 10/16/98 - 10/30/14
 
SHARE

PRINT THIS DATA

[ ← Previous Day ]
WEATHER ALMANAC - MARCH 14, 2014
[ Next Day → ]
[ °C ]   °F
Weather ElementAverageHighLow
Temperature34.8 °F42.1 °F (1:53 am)26.1 °F (10:53 pm)
Dewpoint26.9 °F34 °F (1:53 am)15.1 °F (11:53 pm)
Humidity73.1 %83 % (5:53 am)63 % (11:53 pm)
Barometer29.61 in29.94 in (11:53 pm)29.43 in (3:53 am)
Wind Speed13.4 mph21.9 mph (11:53 am)
Wind Gust28.8 mph (4:53 pm)
Weather ElementAverage
Visibility10 mi
Wind DirectionWNW (288.1 °)

Weather ElementTotal
Precipitation---
Heating Degree Days30.9 (Base 65)
Averaged from 26 records on March 14, 2014
WEATHER CONDITIONS BREAKOUT
WIND DIRECTION BREAKOUT
WEATHER BY HOUR - MARCH 14, 2014
[ °C ]   °F
Local TimeTemperatureDewpointHumidityBarometerVisibilityWind DirectionWind SpeedGust SpeedPrecipitationEventsConditions
1:53 AM42.1 °F34.0 °F73 %29.44 in10.0 miWSW (240°)9.2 mphClear
2:53 AM39.9 °F34.0 °F79 %29.44 in10.0 miWSW (240°)8.1 mphClear
3:53 AM39.0 °F34.0 °F82 %29.43 in10.0 miWSW (250°)8.1 mphClear
4:53 AM39.0 °F33.1 °F79 %29.43 in10.0 miWest (260°)6.9 mphPartly Cloudy
5:53 AM37.9 °F33.1 °F83 %29.44 in10.0 miWest (260°)6.9 mphOvercast
6:53 AM37.0 °F32.0 °F82 %29.45 in10.0 miWest (260°)6.9 mphPartly Cloudy
7:53 AM36.0 °F30.9 °F82 %29.46 in10.0 miWest (260°)8.1 mphMostly Cloudy
8:53 AM36.0 °F30.9 °F82 %29.48 in10.0 miWSW (250°)9.2 mphOvercast
9:53 AM37.0 °F30.0 °F76 %29.49 in10.0 miWest (270°)16.1 mph24.2 mphOvercast
10:53 AM37.0 °F28.9 °F73 %29.49 in10.0 miWest (270°)15.0 mph23.0 mph0.00 inOvercast
11:53 AM37.9 °F28.9 °F70 %29.50 in10.0 miWest (280°)21.9 mph26.5 mphOvercast
12:53 PM37.9 °F30.0 °F73 %29.53 in10.0 miWest (280°)17.3 mph26.5 mphOvercast
1:53 PM37.9 °F28.9 °F70 %29.55 in10.0 miWNW (300°)11.5 mph24.2 mphOvercast
2:53 PM39.0 °F28.0 °F65 %29.56 in10.0 miWNW (290°)11.5 mph21.9 mphOvercast
3:09 PM37.9 °F28.0 °F68 %29.55 in10.0 miWNW (290°)17.3 mph25.3 mphOvercast
3:28 PM37.9 °F28.0 °F68 %29.56 in10.0 miWNW (300°)16.1 mph25.3 mphOvercast
3:53 PM36.0 °F28.0 °F73 %29.61 in10.0 miWNW (300°)13.8 mph27.6 mphOvercast
4:53 PM34.0 °F25.0 °F70 %29.65 in10.0 miNW (310°)20.7 mph28.8 mphOvercast
5:53 PM30.9 °F24.1 °F76 %29.70 in10.0 miNW (320°)17.3 mph25.3 mphOvercast
6:53 PM30.0 °F23.0 °F75 %29.75 in10.0 miNW (310°)16.1 mph25.3 mphOvercast
7:53 PM28.9 °F21.0 °F72 %29.80 in10.0 miWNW (300°)12.7 mphOvercast
8:53 PM28.9 °F19.9 °F69 %29.85 in10.0 miNW (320°)17.3 mph24.2 mphOvercast
9:33 PM28.0 °F18.0 °F66 %29.84 in10.0 miNNW (330°)17.3 mph26.5 mphOvercast
9:53 PM27.0 °F17.1 °F66 %29.88 in10.0 miNNW (330°)17.3 mphOvercast
10:53 PM26.1 °F16.0 °F66 %29.91 in10.0 miNNW (330°)11.5 mphOvercast
11:53 PM26.1 °F15.1 °F63 %29.94 in10.0 miNNW (340°)13.8 mphOvercast
Hourly data recorded from KASX, located miles away from High Bridge, Wisconsin







STORIES FROM OUR PARTNERS